• en France
  • Liste des pays
  • À 7 jours
  • Température de l'eau
  • Carte satellitaire
  • Carte météo
  • Widgets météo
  • user-avatar
    Se connecter

    Météo par heure à Dubovka

    Ce jour, 24 Mai, Jeudi

    Heure Température Précipitation Vent Pression Humidité
    00:00 +19°C° 0,6 mm 1 m/s 751 mmHg 93%
    01:00 +18°C° 0,7 mm 1 m/s 751 mmHg 93%
    02:00 +18°C° 0,7 mm 1 m/s 751 mmHg 94%
    03:00 +17°C° 0,7 mm 2 m/s 750 mmHg 95%
    04:00 +18°C° 0,8 mm 1 m/s 750 mmHg 94%
    05:00 +18°C° 0,8 mm 1 m/s 750 mmHg 94%
    06:00 +18°C° 0,8 mm 1 m/s 750 mmHg 94%
    07:00 +18°C° 1 mm 1 m/s 750 mmHg 93%
    08:00 +18°C° 1 mm 1 m/s 750 mmHg 92%
    09:00 +19°C° 1 mm 1 m/s 750 mmHg 91%
    10:00 +18°C° 0,5 mm 2 m/s 750 mmHg 89%
    11:00 +19°C° 0,5 mm 2 m/s 749 mmHg 88%
    12:00 +19°C° 0,5 mm 2 m/s 749 mmHg 86%
    13:00 +20°C° 0,1 mm 3 m/s 749 mmHg 83%
    14:00 +21°C° 0,1 mm 3 m/s 749 mmHg 79%
    15:00 +21°C° 0,1 mm 4 m/s 749 mmHg 76%
    16:00 +21°C° 0,1 mm 4 m/s 748 mmHg 78%
    17:00 +21°C° 0,1 mm 4 m/s 748 mmHg 80%
    18:00 +20°C° 0,1 mm 4 m/s 748 mmHg 81%
    19:00 +19°C° 0 mm 4 m/s 748 mmHg 84%
    20:00 +18°C° 0 mm 4 m/s 748 mmHg 86%
    21:00 +17°C° 0 mm 4 m/s 748 mmHg 89%
    22:00 +17°C° 0 mm 4 m/s 748 mmHg 88%
    23:00 +15°C° 0 mm 4 m/s 748 mmHg 87%

    Demain, 25 Mai, Vendredi

    Heure Température Précipitation Vent Pression Humidité
    00:00 +15°C° 0 mm 4 m/s 748 mmHg 85%
    01:00 +15°C° 0 mm 5 m/s 748 mmHg 84%
    02:00 +14°C° 0 mm 5 m/s 748 mmHg 83%
    03:00 +14°C° 0 mm 6 m/s 748 mmHg 82%
    04:00 +13°C° 0 mm 6 m/s 749 mmHg 82%
    05:00 +12°C° 0 mm 7 m/s 749 mmHg 82%
    06:00 +12°C° 0 mm 7 m/s 750 mmHg 83%
    07:00 +12°C° 0 mm 7 m/s 750 mmHg 76%
    08:00 +13°C° 0 mm 8 m/s 751 mmHg 69%
    09:00 +15°C° 0 mm 8 m/s 751 mmHg 62%
    10:00 +15°C° 0 mm 8 m/s 752 mmHg 58%
    11:00 +15°C° 0 mm 8 m/s 752 mmHg 55%
    12:00 +16°C° 0 mm 8 m/s 753 mmHg 51%
    13:00 +16°C° 0 mm 7 m/s 753 mmHg 51%
    14:00 +16°C° 0 mm 7 m/s 753 mmHg 50%
    15:00 +16°C° 0 mm 7 m/s 754 mmHg 49%
    16:00 +16°C° 0 mm 6 m/s 754 mmHg 52%
    17:00 +15°C° 0 mm 6 m/s 754 mmHg 55%
    18:00 +15°C° 0 mm 5 m/s 754 mmHg 58%
    19:00 +13°C° 0 mm 5 m/s 755 mmHg 59%
    20:00 +12°C° 0 mm 4 m/s 755 mmHg 61%
    21:00 +10°C° 0 mm 4 m/s 756 mmHg 62%
    22:00 +8°C° 0 mm 4 m/s 756 mmHg 63%
    23:00 +9°C° 0 mm 3 m/s 757 mmHg 64%

    Après-demain, 26 Mai, Samedi

    Heure Température Précipitation Vent Pression Humidité
    00:00 +8°C° 0 mm 3 m/s 757 mmHg 65%
    01:00 +7°C° 0 mm 3 m/s 758 mmHg 66%
    02:00 +7°C° 0 mm 3 m/s 758 mmHg 68%
    03:00 +5°C° 0 mm 3 m/s 759 mmHg 69%
    04:00 +5°C° 0 mm 3 m/s 759 mmHg 68%
    05:00 +7°C° 0 mm 3 m/s 760 mmHg 68%
    06:00 +7°C° 0 mm 3 m/s 760 mmHg 67%
    07:00 +8°C° 0 mm 4 m/s 761 mmHg 61%
    08:00 +11°C° 0 mm 4 m/s 761 mmHg 55%
    09:00 +12°C° 0 mm 4 m/s 762 mmHg 48%
    10:00 +13°C° 0 mm 4 m/s 762 mmHg 47%
    11:00 +14°C° 0 mm 4 m/s 762 mmHg 45%
    12:00 +15°C° 0 mm 4 m/s 762 mmHg 44%
    13:00 +17°C° 0 mm 4 m/s 761 mmHg 43%
    14:00 +17°C° 0 mm 4 m/s 761 mmHg 42%
    15:00 +18°C° 0 mm 3 m/s 761 mmHg 42%
    16:00 +18°C° 0 mm 3 m/s 761 mmHg 45%
    17:00 +18°C° 0 mm 2 m/s 761 mmHg 49%
    18:00 +17°C° 0 mm 2 m/s 761 mmHg 52%
    19:00 +16°C° 0 mm 1 m/s 761 mmHg 55%
    20:00 +14°C° 0 mm 1 m/s 761 mmHg 58%
    21:00 +12°C° 0 mm 1 m/s 761 mmHg 61%
    22:00 +11°C° 0 mm 1 m/s 761 mmHg 62%
    23:00 +11°C° 0 mm 1 m/s 761 mmHg 63%

    27 Mai, Dimanche

    Heure Température Précipitation Vent Pression Humidité
    00:00 +9°C° 0 mm 2 m/s 761 mmHg 64%
    01:00 +9°C° 0 mm 2 m/s 761 mmHg 66%
    02:00 +9°C° 0 mm 2 m/s 761 mmHg 67%
    03:00 +9°C° 0 mm 2 m/s 761 mmHg 69%
    04:00 +9°C° 0 mm 2 m/s 761 mmHg 70%
    05:00 +10°C° 0 mm 3 m/s 761 mmHg 71%
    06:00 +10°C° 0 mm 3 m/s 761 mmHg 73%
    07:00 +12°C° 0 mm 3 m/s 761 mmHg 69%
    08:00 +14°C° 0 mm 3 m/s 761 mmHg 66%
    09:00 +17°C° 0 mm 4 m/s 761 mmHg 63%
    10:00 +18°C° 0 mm 4 m/s 760 mmHg 60%
    11:00 +20°C° 0 mm 4 m/s 760 mmHg 58%
    12:00 +21°C° 0 mm 4 m/s 760 mmHg 55%
    13:00 +21°C° 0 mm 4 m/s 759 mmHg 55%
    14:00 +22°C° 0 mm 5 m/s 759 mmHg 55%
    15:00 +22°C° 0 mm 5 m/s 758 mmHg 55%
    16:00 +21°C° 0 mm 4 m/s 757 mmHg 58%
    17:00 +21°C° 0 mm 4 m/s 757 mmHg 62%
    18:00 +20°C° 0 mm 4 m/s 756 mmHg 66%
    19:00 +19°C° 0 mm 4 m/s 756 mmHg 71%
    20:00 +17°C° 0 mm 3 m/s 756 mmHg 75%
    21:00 +14°C° 0 mm 3 m/s 756 mmHg 80%
    22:00 +14°C° 0 mm 3 m/s 755 mmHg 80%
    23:00 +13°C° 0 mm 4 m/s 755 mmHg 80%

    28 Mai, Lundi

    Heure Température Précipitation Vent Pression Humidité
    00:00 +13°C° 0 mm 4 m/s 755 mmHg 79%
    01:00 +12°C° 0 mm 4 m/s 755 mmHg 80%
    02:00 +12°C° 0 mm 4 m/s 755 mmHg 80%
    03:00 +12°C° 0 mm 4 m/s 754 mmHg 80%
    04:00 +12°C° 0 mm 4 m/s 754 mmHg 80%
    05:00 +13°C° 0 mm 3 m/s 754 mmHg 80%
    06:00 +13°C° 0 mm 3 m/s 754 mmHg 81%
    07:00 +14°C° 0 mm 3 m/s 754 mmHg 78%
    08:00 +16°C° 0 mm 3 m/s 754 mmHg 76%
    09:00 +17°C° 0 mm 3 m/s 755 mmHg 74%
    10:00 +18°C° 0 mm 4 m/s 755 mmHg 67%
    11:00 +19°C° 0 mm 5 m/s 755 mmHg 60%
    12:00 +20°C° 0 mm 5 m/s 755 mmHg 53%
    13:00 +20°C° 0 mm 5 m/s 755 mmHg 50%
    14:00 +20°C° 0 mm 6 m/s 755 mmHg 47%
    15:00 +20°C° 0 mm 6 m/s 755 mmHg 45%
    16:00 +20°C° 0 mm 5 m/s 755 mmHg 48%
    17:00 +19°C° 0 mm 4 m/s 755 mmHg 52%
    18:00 +18°C° 0 mm 4 m/s 755 mmHg 56%
    19:00 +16°C° 0 mm 3 m/s 756 mmHg 58%
    20:00 +13°C° 0 mm 3 m/s 756 mmHg 61%
    21:00 +11°C° 0 mm 3 m/s 757 mmHg 63%
    22:00 +10°C° 0 mm 3 m/s 757 mmHg 64%
    23:00 +9°C° 0 mm 2 m/s 757 mmHg 64%

    29 Mai, Mardi

    Heure Température Précipitation Vent Pression Humidité
    00:00 +8°C° 0 mm 2 m/s 757 mmHg 65%
    01:00 +8°C° 0 mm 2 m/s 757 mmHg 65%
    02:00 +8°C° 0 mm 2 m/s 757 mmHg 65%
    03:00 +7°C° 0 mm 2 m/s 758 mmHg 65%
    04:00 +8°C° 0 mm 2 m/s 757 mmHg 66%
    05:00 +9°C° 0 mm 3 m/s 757 mmHg 66%
    06:00 +10°C° 0 mm 3 m/s 757 mmHg 67%
    07:00 +12°C° 0 mm 4 m/s 757 mmHg 63%
    08:00 +14°C° 0 mm 5 m/s 757 mmHg 59%
    09:00 +16°C° 0 mm 6 m/s 756 mmHg 54%
    10:00 +17°C° 0 mm 6 m/s 756 mmHg 53%
    11:00 +19°C° 0 mm 6 m/s 756 mmHg 51%
    12:00 +21°C° 0 mm 6 m/s 755 mmHg 49%
    13:00 +21°C° 0 mm 6 m/s 755 mmHg 50%
    14:00 +22°C° 0 mm 6 m/s 755 mmHg 50%
    15:00 +22°C° 0 mm 6 m/s 754 mmHg 50%
    16:00 +22°C° 0 mm 6 m/s 754 mmHg 55%
    17:00 +21°C° 0 mm 5 m/s 753 mmHg 59%
    18:00 +21°C° 0 mm 4 m/s 753 mmHg 63%
    19:00 +19°C° 0 mm 4 m/s 753 mmHg 67%
    20:00 +18°C° 0 mm 4 m/s 752 mmHg 70%
    21:00 +17°C° 0 mm 4 m/s 752 mmHg 74%
    22:00 +15°C° 0 mm 4 m/s 752 mmHg 75%
    23:00 +15°C° 0 mm 4 m/s 752 mmHg 75%
    Voir plus